<?xml version="1.0" encoding="UTF-8" standalone="no" ?>
<gpx xmlns="http://www.topografix.com/GPX/1/1" creator="http://nakarte.me" xmlns:xsi="http://www.w3.org/2001/XMLSchema-instance" xsi:schemaLocation="http://www.topografix.com/GPX/1/1 http://www.topografix.com/GPX/1/1/gpx.xsd" version="1.1">
	<metadata>
		<time>2024-04-08T06:55:13.063Z</time>
	</metadata>
	<wpt lat="51.640540" lon="38.934839">
		<name>Укатанная щебёнка, 600 м</name>
	</wpt>
	<wpt lat="51.592976" lon="38.863556">
		<name>Грейдер, 1 км</name>
	</wpt>
	<wpt lat="51.569495" lon="38.801866">
		<name>Магазин Флагман</name>
	</wpt>
	<wpt lat="51.528824" lon="38.827572">
		<name>Грейдер, 1 км</name>
	</wpt>
	<wpt lat="51.545321" lon="38.685822">
		<name>Грейдер, 1.5 км</name>
	</wpt>
	<wpt lat="51.573602" lon="38.542142">
		<name>Черзнозём, в непогоду по трассе</name>
	</wpt>
	<wpt lat="51.587636" lon="38.565477">
		<name>Конец чернозёма</name>
	</wpt>
	<wpt lat="51.624451" lon="38.617716">
		<name>Чернозём, в непогоду по трассе</name>
	</wpt>
	<wpt lat="51.588550" lon="38.581924">
		<name>Поворот в село при движении по трассе</name>
	</wpt>
	<trk>
		<name>Route</name>
		<trkseg>
			<trkpt lat="51.683479" lon="39.041204"><time>1970-01-01T00:00:01.000Z</time></trkpt>
			<trkpt lat="51.681483" lon="39.042857"><time>1970-01-01T00:00:01.000Z</time></trkpt>
			<trkpt lat="51.681563" lon="39.040947"><time>1970-01-01T00:00:01.000Z</time></trkpt>
			<trkpt lat="51.680206" lon="39.034166"><time>1970-01-01T00:00:01.000Z</time></trkpt>
			<trkpt lat="51.679195" lon="39.034874"><time>1970-01-01T00:00:01.000Z</time></trkpt>
			<trkpt lat="51.678197" lon="39.033029"><time>1970-01-01T00:00:01.000Z</time></trkpt>
			<trkpt lat="51.677944" lon="39.030111"><time>1970-01-01T00:00:01.000Z</time></trkpt>
			<trkpt lat="51.677306" lon="39.030089"><time>1970-01-01T00:00:01.000Z</time></trkpt>
			<trkpt lat="51.674551" lon="39.032879"><time>1970-01-01T00:00:01.000Z</time></trkpt>
			<trkpt lat="51.673912" lon="39.027987"><time>1970-01-01T00:00:01.000Z</time></trkpt>
			<trkpt lat="51.672289" lon="39.023995"><time>1970-01-01T00:00:01.000Z</time></trkpt>
			<trkpt lat="51.668749" lon="39.021420"><time>1970-01-01T00:00:01.000Z</time></trkpt>
			<trkpt lat="51.667631" lon="39.020863"><time>1970-01-01T00:00:01.000Z</time></trkpt>
			<trkpt lat="51.666300" lon="39.015713"><time>1970-01-01T00:00:01.000Z</time></trkpt>
			<trkpt lat="51.664064" lon="39.014125"><time>1970-01-01T00:00:01.000Z</time></trkpt>
			<trkpt lat="51.663878" lon="39.011550"><time>1970-01-01T00:00:01.000Z</time></trkpt>
			<trkpt lat="51.660737" lon="39.010649"><time>1970-01-01T00:00:01.000Z</time></trkpt>
			<trkpt lat="51.659033" lon="39.002666"><time>1970-01-01T00:00:01.000Z</time></trkpt>
			<trkpt lat="51.656318" lon="38.998804"><time>1970-01-01T00:00:01.000Z</time></trkpt>
			<trkpt lat="51.657888" lon="38.993311"><time>1970-01-01T00:00:01.000Z</time></trkpt>
			<trkpt lat="51.656850" lon="38.988118"><time>1970-01-01T00:00:01.000Z</time></trkpt>
			<trkpt lat="51.654907" lon="38.983912"><time>1970-01-01T00:00:01.000Z</time></trkpt>
			<trkpt lat="51.653629" lon="38.982668"><time>1970-01-01T00:00:01.000Z</time></trkpt>
			<trkpt lat="51.654401" lon="38.979836"><time>1970-01-01T00:00:01.000Z</time></trkpt>
			<trkpt lat="51.658234" lon="38.975329"><time>1970-01-01T00:00:01.000Z</time></trkpt>
			<trkpt lat="51.657436" lon="38.970909"><time>1970-01-01T00:00:01.000Z</time></trkpt>
			<trkpt lat="51.656131" lon="38.970137"><time>1970-01-01T00:00:01.000Z</time></trkpt>
			<trkpt lat="51.653469" lon="38.971639"><time>1970-01-01T00:00:01.000Z</time></trkpt>
			<trkpt lat="51.651978" lon="38.972797"><time>1970-01-01T00:00:01.000Z</time></trkpt>
			<trkpt lat="51.649714" lon="38.972883"><time>1970-01-01T00:00:01.000Z</time></trkpt>
			<trkpt lat="51.644096" lon="38.960781"><time>1970-01-01T00:00:01.000Z</time></trkpt>
			<trkpt lat="51.641992" lon="38.953142"><time>1970-01-01T00:00:01.000Z</time></trkpt>
			<trkpt lat="51.640207" lon="38.948507"><time>1970-01-01T00:00:01.000Z</time></trkpt>
			<trkpt lat="51.643696" lon="38.944345"><time>1970-01-01T00:00:01.000Z</time></trkpt>
			<trkpt lat="51.643377" lon="38.943143"><time>1970-01-01T00:00:01.000Z</time></trkpt>
			<trkpt lat="51.641166" lon="38.940439"><time>1970-01-01T00:00:01.000Z</time></trkpt>
			<trkpt lat="51.640527" lon="38.938551"><time>1970-01-01T00:00:01.000Z</time></trkpt>
			<trkpt lat="51.639968" lon="38.937542"><time>1970-01-01T00:00:01.000Z</time></trkpt>
			<trkpt lat="51.640301" lon="38.935590"><time>1970-01-01T00:00:01.000Z</time></trkpt>
			<trkpt lat="51.640207" lon="38.934860"><time>1970-01-01T00:00:01.000Z</time></trkpt>
			<trkpt lat="51.636439" lon="38.930955"><time>1970-01-01T00:00:01.000Z</time></trkpt>
			<trkpt lat="51.635054" lon="38.929431"><time>1970-01-01T00:00:01.000Z</time></trkpt>
			<trkpt lat="51.631284" lon="38.928509"><time>1970-01-01T00:00:01.000Z</time></trkpt>
			<trkpt lat="51.628714" lon="38.924260"><time>1970-01-01T00:00:01.000Z</time></trkpt>
			<trkpt lat="51.627688" lon="38.921900"><time>1970-01-01T00:00:01.000Z</time></trkpt>
			<trkpt lat="51.625557" lon="38.917823"><time>1970-01-01T00:00:01.000Z</time></trkpt>
			<trkpt lat="51.622386" lon="38.912759"><time>1970-01-01T00:00:01.000Z</time></trkpt>
			<trkpt lat="51.620308" lon="38.908553"><time>1970-01-01T00:00:01.000Z</time></trkpt>
			<trkpt lat="51.618763" lon="38.906536"><time>1970-01-01T00:00:01.000Z</time></trkpt>
			<trkpt lat="51.616524" lon="38.906193"><time>1970-01-01T00:00:01.000Z</time></trkpt>
			<trkpt lat="51.615752" lon="38.903875"><time>1970-01-01T00:00:01.000Z</time></trkpt>
			<trkpt lat="51.614366" lon="38.901558"><time>1970-01-01T00:00:01.000Z</time></trkpt>
			<trkpt lat="51.613486" lon="38.899155"><time>1970-01-01T00:00:01.000Z</time></trkpt>
			<trkpt lat="51.612234" lon="38.898253"><time>1970-01-01T00:00:01.000Z</time></trkpt>
			<trkpt lat="51.610715" lon="38.897567"><time>1970-01-01T00:00:01.000Z</time></trkpt>
			<trkpt lat="51.609809" lon="38.898640"><time>1970-01-01T00:00:01.000Z</time></trkpt>
			<trkpt lat="51.609222" lon="38.897481"><time>1970-01-01T00:00:01.000Z</time></trkpt>
			<trkpt lat="51.608636" lon="38.898125"><time>1970-01-01T00:00:01.000Z</time></trkpt>
			<trkpt lat="51.606504" lon="38.900785"><time>1970-01-01T00:00:01.000Z</time></trkpt>
			<trkpt lat="51.605171" lon="38.901858"><time>1970-01-01T00:00:01.000Z</time></trkpt>
			<trkpt lat="51.603892" lon="38.901258"><time>1970-01-01T00:00:01.000Z</time></trkpt>
			<trkpt lat="51.602772" lon="38.901043"><time>1970-01-01T00:00:01.000Z</time></trkpt>
			<trkpt lat="51.601786" lon="38.900914"><time>1970-01-01T00:00:01.000Z</time></trkpt>
			<trkpt lat="51.600080" lon="38.897610"><time>1970-01-01T00:00:01.000Z</time></trkpt>
			<trkpt lat="51.597841" lon="38.894606"><time>1970-01-01T00:00:01.000Z</time></trkpt>
			<trkpt lat="51.596695" lon="38.893919"><time>1970-01-01T00:00:01.000Z</time></trkpt>
			<trkpt lat="51.595628" lon="38.891387"><time>1970-01-01T00:00:01.000Z</time></trkpt>
			<trkpt lat="51.596081" lon="38.886666"><time>1970-01-01T00:00:01.000Z</time></trkpt>
			<trkpt lat="51.596215" lon="38.884563"><time>1970-01-01T00:00:01.000Z</time></trkpt>
			<trkpt lat="51.595895" lon="38.883598"><time>1970-01-01T00:00:01.000Z</time></trkpt>
			<trkpt lat="51.595635" lon="38.881978"><time>1970-01-01T00:00:01.000Z</time></trkpt>
			<trkpt lat="51.595408" lon="38.880562"><time>1970-01-01T00:00:01.000Z</time></trkpt>
			<trkpt lat="51.595208" lon="38.879575"><time>1970-01-01T00:00:01.000Z</time></trkpt>
			<trkpt lat="51.594902" lon="38.877944"><time>1970-01-01T00:00:01.000Z</time></trkpt>
			<trkpt lat="51.594828" lon="38.877729"><time>1970-01-01T00:00:01.000Z</time></trkpt>
			<trkpt lat="51.593909" lon="38.874629"><time>1970-01-01T00:00:01.000Z</time></trkpt>
			<trkpt lat="51.593076" lon="38.871925"><time>1970-01-01T00:00:01.000Z</time></trkpt>
			<trkpt lat="51.591736" lon="38.867826"><time>1970-01-01T00:00:01.000Z</time></trkpt>
			<trkpt lat="51.592002" lon="38.865380"><time>1970-01-01T00:00:01.000Z</time></trkpt>
			<trkpt lat="51.592882" lon="38.863149"><time>1970-01-01T00:00:01.000Z</time></trkpt>
			<trkpt lat="51.593869" lon="38.860874"><time>1970-01-01T00:00:01.000Z</time></trkpt>
			<trkpt lat="51.593629" lon="38.858814"><time>1970-01-01T00:00:01.000Z</time></trkpt>
			<trkpt lat="51.593202" lon="38.856454"><time>1970-01-01T00:00:01.000Z</time></trkpt>
			<trkpt lat="51.592162" lon="38.853321"><time>1970-01-01T00:00:01.000Z</time></trkpt>
			<trkpt lat="51.591149" lon="38.850703"><time>1970-01-01T00:00:01.000Z</time></trkpt>
			<trkpt lat="51.590003" lon="38.850145"><time>1970-01-01T00:00:01.000Z</time></trkpt>
			<trkpt lat="51.589390" lon="38.850017"><time>1970-01-01T00:00:01.000Z</time></trkpt>
			<trkpt lat="51.588003" lon="38.845639"><time>1970-01-01T00:00:01.000Z</time></trkpt>
			<trkpt lat="51.587630" lon="38.842549"><time>1970-01-01T00:00:01.000Z</time></trkpt>
			<trkpt lat="51.586776" lon="38.837614"><time>1970-01-01T00:00:01.000Z</time></trkpt>
			<trkpt lat="51.584243" lon="38.840146"><time>1970-01-01T00:00:01.000Z</time></trkpt>
			<trkpt lat="51.583230" lon="38.831477"><time>1970-01-01T00:00:01.000Z</time></trkpt>
			<trkpt lat="51.582003" lon="38.829975"><time>1970-01-01T00:00:01.000Z</time></trkpt>
			<trkpt lat="51.580617" lon="38.829589"><time>1970-01-01T00:00:01.000Z</time></trkpt>
			<trkpt lat="51.580030" lon="38.826928"><time>1970-01-01T00:00:01.000Z</time></trkpt>
			<trkpt lat="51.579203" lon="38.824739"><time>1970-01-01T00:00:01.000Z</time></trkpt>
			<trkpt lat="51.577816" lon="38.824224"><time>1970-01-01T00:00:01.000Z</time></trkpt>
			<trkpt lat="51.576323" lon="38.825383"><time>1970-01-01T00:00:01.000Z</time></trkpt>
			<trkpt lat="51.575389" lon="38.825383"><time>1970-01-01T00:00:01.000Z</time></trkpt>
			<trkpt lat="51.574269" lon="38.817916"><time>1970-01-01T00:00:01.000Z</time></trkpt>
			<trkpt lat="51.573442" lon="38.807874"><time>1970-01-01T00:00:01.000Z</time></trkpt>
			<trkpt lat="51.572055" lon="38.804183"><time>1970-01-01T00:00:01.000Z</time></trkpt>
			<trkpt lat="51.569735" lon="38.802037"><time>1970-01-01T00:00:01.000Z</time></trkpt>
			<trkpt lat="51.568454" lon="38.804998"><time>1970-01-01T00:00:01.000Z</time></trkpt>
			<trkpt lat="51.561091" lon="38.812637"><time>1970-01-01T00:00:01.000Z</time></trkpt>
			<trkpt lat="51.558156" lon="38.816586"><time>1970-01-01T00:00:01.000Z</time></trkpt>
			<trkpt lat="51.556022" lon="38.818517"><time>1970-01-01T00:00:01.000Z</time></trkpt>
			<trkpt lat="51.551886" lon="38.822165"><time>1970-01-01T00:00:01.000Z</time></trkpt>
			<trkpt lat="51.543720" lon="38.825083"><time>1970-01-01T00:00:01.000Z</time></trkpt>
			<trkpt lat="51.539449" lon="38.828173"><time>1970-01-01T00:00:01.000Z</time></trkpt>
			<trkpt lat="51.531921" lon="38.832722"><time>1970-01-01T00:00:01.000Z</time></trkpt>
			<trkpt lat="51.525567" lon="38.825254"><time>1970-01-01T00:00:01.000Z</time></trkpt>
			<trkpt lat="51.518304" lon="38.824997"><time>1970-01-01T00:00:01.000Z</time></trkpt>
			<trkpt lat="51.512108" lon="38.833838"><time>1970-01-01T00:00:01.000Z</time></trkpt>
			<trkpt lat="51.509170" lon="38.834696"><time>1970-01-01T00:00:01.000Z</time></trkpt>
			<trkpt lat="51.505537" lon="38.832378"><time>1970-01-01T00:00:01.000Z</time></trkpt>
			<trkpt lat="51.489347" lon="38.833323"><time>1970-01-01T00:00:01.000Z</time></trkpt>
			<trkpt lat="51.482238" lon="38.832893"><time>1970-01-01T00:00:01.000Z</time></trkpt>
			<trkpt lat="51.484911" lon="38.823195"><time>1970-01-01T00:00:01.000Z</time></trkpt>
			<trkpt lat="51.489560" lon="38.800707"><time>1970-01-01T00:00:01.000Z</time></trkpt>
			<trkpt lat="51.489079" lon="38.795557"><time>1970-01-01T00:00:01.000Z</time></trkpt>
			<trkpt lat="51.481116" lon="38.796329"><time>1970-01-01T00:00:01.000Z</time></trkpt>
			<trkpt lat="51.472723" lon="38.804827"><time>1970-01-01T00:00:01.000Z</time></trkpt>
			<trkpt lat="51.468446" lon="38.806973"><time>1970-01-01T00:00:01.000Z</time></trkpt>
			<trkpt lat="51.465184" lon="38.808088"><time>1970-01-01T00:00:01.000Z</time></trkpt>
			<trkpt lat="51.460959" lon="38.810406"><time>1970-01-01T00:00:01.000Z</time></trkpt>
			<trkpt lat="51.446465" lon="38.814268"><time>1970-01-01T00:00:01.000Z</time></trkpt>
			<trkpt lat="51.442239" lon="38.818045"><time>1970-01-01T00:00:01.000Z</time></trkpt>
			<trkpt lat="51.430093" lon="38.817272"><time>1970-01-01T00:00:01.000Z</time></trkpt>
			<trkpt lat="51.421370" lon="38.825169"><time>1970-01-01T00:00:01.000Z</time></trkpt>
			<trkpt lat="51.417462" lon="38.825254"><time>1970-01-01T00:00:01.000Z</time></trkpt>
			<trkpt lat="51.393208" lon="38.812122"><time>1970-01-01T00:00:01.000Z</time></trkpt>
			<trkpt lat="51.390798" lon="38.809376"><time>1970-01-01T00:00:01.000Z</time></trkpt>
			<trkpt lat="51.386941" lon="38.808346"><time>1970-01-01T00:00:01.000Z</time></trkpt>
			<trkpt lat="51.384370" lon="38.809462"><time>1970-01-01T00:00:01.000Z</time></trkpt>
			<trkpt lat="51.378638" lon="38.809462"><time>1970-01-01T00:00:01.000Z</time></trkpt>
			<trkpt lat="51.377245" lon="38.792210"><time>1970-01-01T00:00:01.000Z</time></trkpt>
			<trkpt lat="51.375960" lon="38.785515"><time>1970-01-01T00:00:01.000Z</time></trkpt>
			<trkpt lat="51.369316" lon="38.775644"><time>1970-01-01T00:00:01.000Z</time></trkpt>
			<trkpt lat="51.363207" lon="38.770409"><time>1970-01-01T00:00:01.000Z</time></trkpt>
			<trkpt lat="51.363903" lon="38.768778"><time>1970-01-01T00:00:01.000Z</time></trkpt>
			<trkpt lat="51.366529" lon="38.767147"><time>1970-01-01T00:00:01.000Z</time></trkpt>
			<trkpt lat="51.380942" lon="38.766031"><time>1970-01-01T00:00:01.000Z</time></trkpt>
			<trkpt lat="51.402365" lon="38.771524"><time>1970-01-01T00:00:01.000Z</time></trkpt>
			<trkpt lat="51.415428" lon="38.767319"><time>1970-01-01T00:00:01.000Z</time></trkpt>
			<trkpt lat="51.432287" lon="38.745689"><time>1970-01-01T00:00:01.000Z</time></trkpt>
			<trkpt lat="51.446144" lon="38.725777"><time>1970-01-01T00:00:01.000Z</time></trkpt>
			<trkpt lat="51.464382" lon="38.729467"><time>1970-01-01T00:00:01.000Z</time></trkpt>
			<trkpt lat="51.471440" lon="38.722000"><time>1970-01-01T00:00:01.000Z</time></trkpt>
			<trkpt lat="51.476037" lon="38.719254"><time>1970-01-01T00:00:01.000Z</time></trkpt>
			<trkpt lat="51.479940" lon="38.719683"><time>1970-01-01T00:00:01.000Z</time></trkpt>
			<trkpt lat="51.482345" lon="38.722086"><time>1970-01-01T00:00:01.000Z</time></trkpt>
			<trkpt lat="51.489186" lon="38.728352"><time>1970-01-01T00:00:01.000Z</time></trkpt>
			<trkpt lat="51.492660" lon="38.735046"><time>1970-01-01T00:00:01.000Z</time></trkpt>
			<trkpt lat="51.499553" lon="38.732300"><time>1970-01-01T00:00:01.000Z</time></trkpt>
			<trkpt lat="51.508689" lon="38.737793"><time>1970-01-01T00:00:01.000Z</time></trkpt>
			<trkpt lat="51.518784" lon="38.748865"><time>1970-01-01T00:00:01.000Z</time></trkpt>
			<trkpt lat="51.545908" lon="38.749638"><time>1970-01-01T00:00:01.000Z</time></trkpt>
			<trkpt lat="51.554608" lon="38.744659"><time>1970-01-01T00:00:01.000Z</time></trkpt>
			<trkpt lat="51.552686" lon="38.737793"><time>1970-01-01T00:00:01.000Z</time></trkpt>
			<trkpt lat="51.551299" lon="38.736076"><time>1970-01-01T00:00:01.000Z</time></trkpt>
			<trkpt lat="51.550018" lon="38.731184"><time>1970-01-01T00:00:01.000Z</time></trkpt>
			<trkpt lat="51.548150" lon="38.723030"><time>1970-01-01T00:00:01.000Z</time></trkpt>
			<trkpt lat="51.545855" lon="38.704147"><time>1970-01-01T00:00:01.000Z</time></trkpt>
			<trkpt lat="51.545214" lon="38.688011"><time>1970-01-01T00:00:01.000Z</time></trkpt>
			<trkpt lat="51.546709" lon="38.683720"><time>1970-01-01T00:00:01.000Z</time></trkpt>
			<trkpt lat="51.544253" lon="38.677883"><time>1970-01-01T00:00:01.000Z</time></trkpt>
			<trkpt lat="51.539823" lon="38.671360"><time>1970-01-01T00:00:01.000Z</time></trkpt>
			<trkpt lat="51.538008" lon="38.666553"><time>1970-01-01T00:00:01.000Z</time></trkpt>
			<trkpt lat="51.539716" lon="38.650589"><time>1970-01-01T00:00:01.000Z</time></trkpt>
			<trkpt lat="51.539716" lon="38.644838"><time>1970-01-01T00:00:01.000Z</time></trkpt>
			<trkpt lat="51.537314" lon="38.636255"><time>1970-01-01T00:00:01.000Z</time></trkpt>
			<trkpt lat="51.536246" lon="38.628359"><time>1970-01-01T00:00:01.000Z</time></trkpt>
			<trkpt lat="51.537741" lon="38.625355"><time>1970-01-01T00:00:01.000Z</time></trkpt>
			<trkpt lat="51.537741" lon="38.622093"><time>1970-01-01T00:00:01.000Z</time></trkpt>
			<trkpt lat="51.539716" lon="38.615398"><time>1970-01-01T00:00:01.000Z</time></trkpt>
			<trkpt lat="51.541478" lon="38.613853"><time>1970-01-01T00:00:01.000Z</time></trkpt>
			<trkpt lat="51.541211" lon="38.606901"><time>1970-01-01T00:00:01.000Z</time></trkpt>
			<trkpt lat="51.539662" lon="38.605871"><time>1970-01-01T00:00:01.000Z</time></trkpt>
			<trkpt lat="51.537767" lon="38.606257"><time>1970-01-01T00:00:01.000Z</time></trkpt>
			<trkpt lat="51.537794" lon="38.603554"><time>1970-01-01T00:00:01.000Z</time></trkpt>
			<trkpt lat="51.536606" lon="38.596666"><time>1970-01-01T00:00:01.000Z</time></trkpt>
			<trkpt lat="51.536032" lon="38.593147"><time>1970-01-01T00:00:01.000Z</time></trkpt>
			<trkpt lat="51.535592" lon="38.591752"><time>1970-01-01T00:00:01.000Z</time></trkpt>
			<trkpt lat="51.535859" lon="38.585250"><time>1970-01-01T00:00:01.000Z</time></trkpt>
			<trkpt lat="51.536232" lon="38.583770"><time>1970-01-01T00:00:01.000Z</time></trkpt>
			<trkpt lat="51.535779" lon="38.580530"><time>1970-01-01T00:00:01.000Z</time></trkpt>
			<trkpt lat="51.533456" lon="38.573964"><time>1970-01-01T00:00:01.000Z</time></trkpt>
			<trkpt lat="51.533149" lon="38.570809"><time>1970-01-01T00:00:01.000Z</time></trkpt>
			<trkpt lat="51.531894" lon="38.567247"><time>1970-01-01T00:00:01.000Z</time></trkpt>
			<trkpt lat="51.530613" lon="38.563943"><time>1970-01-01T00:00:01.000Z</time></trkpt>
			<trkpt lat="51.528157" lon="38.562784"><time>1970-01-01T00:00:01.000Z</time></trkpt>
			<trkpt lat="51.526675" lon="38.560960"><time>1970-01-01T00:00:01.000Z</time></trkpt>
			<trkpt lat="51.524979" lon="38.559158"><time>1970-01-01T00:00:01.000Z</time></trkpt>
			<trkpt lat="51.524152" lon="38.557270"><time>1970-01-01T00:00:01.000Z</time></trkpt>
			<trkpt lat="51.523498" lon="38.557141"><time>1970-01-01T00:00:01.000Z</time></trkpt>
			<trkpt lat="51.523204" lon="38.557248"><time>1970-01-01T00:00:01.000Z</time></trkpt>
			<trkpt lat="51.522496" lon="38.556948"><time>1970-01-01T00:00:01.000Z</time></trkpt>
			<trkpt lat="51.520240" lon="38.554072"><time>1970-01-01T00:00:01.000Z</time></trkpt>
			<trkpt lat="51.519092" lon="38.552077"><time>1970-01-01T00:00:01.000Z</time></trkpt>
			<trkpt lat="51.517169" lon="38.550081"><time>1970-01-01T00:00:01.000Z</time></trkpt>
			<trkpt lat="51.514391" lon="38.548751"><time>1970-01-01T00:00:01.000Z</time></trkpt>
			<trkpt lat="51.512896" lon="38.546734"><time>1970-01-01T00:00:01.000Z</time></trkpt>
			<trkpt lat="51.511560" lon="38.544631"><time>1970-01-01T00:00:01.000Z</time></trkpt>
			<trkpt lat="51.511761" lon="38.542399"><time>1970-01-01T00:00:01.000Z</time></trkpt>
			<trkpt lat="51.512682" lon="38.540275"><time>1970-01-01T00:00:01.000Z</time></trkpt>
			<trkpt lat="51.511961" lon="38.538129"><time>1970-01-01T00:00:01.000Z</time></trkpt>
			<trkpt lat="51.512709" lon="38.532057"><time>1970-01-01T00:00:01.000Z</time></trkpt>
			<trkpt lat="51.521375" lon="38.539996"><time>1970-01-01T00:00:01.000Z</time></trkpt>
			<trkpt lat="51.541958" lon="38.542271"><time>1970-01-01T00:00:01.000Z</time></trkpt>
			<trkpt lat="51.552713" lon="38.545146"><time>1970-01-01T00:00:01.000Z</time></trkpt>
			<trkpt lat="51.558103" lon="38.546348"><time>1970-01-01T00:00:01.000Z</time></trkpt>
			<trkpt lat="51.572615" lon="38.542099"><time>1970-01-01T00:00:01.000Z</time></trkpt>
			<trkpt lat="51.575469" lon="38.543558"><time>1970-01-01T00:00:01.000Z</time></trkpt>
			<trkpt lat="51.583790" lon="38.557935"><time>1970-01-01T00:00:01.000Z</time></trkpt>
			<trkpt lat="51.587363" lon="38.565145"><time>1970-01-01T00:00:01.000Z</time></trkpt>
			<trkpt lat="51.588536" lon="38.565960"><time>1970-01-01T00:00:01.000Z</time></trkpt>
			<trkpt lat="51.589816" lon="38.571925"><time>1970-01-01T00:00:01.000Z</time></trkpt>
			<trkpt lat="51.592882" lon="38.575101"><time>1970-01-01T00:00:01.000Z</time></trkpt>
			<trkpt lat="51.595308" lon="38.576903"><time>1970-01-01T00:00:01.000Z</time></trkpt>
			<trkpt lat="51.602932" lon="38.576217"><time>1970-01-01T00:00:01.000Z</time></trkpt>
			<trkpt lat="51.607996" lon="38.574629"><time>1970-01-01T00:00:01.000Z</time></trkpt>
			<trkpt lat="51.608663" lon="38.573556"><time>1970-01-01T00:00:01.000Z</time></trkpt>
			<trkpt lat="51.611408" lon="38.579865"><time>1970-01-01T00:00:01.000Z</time></trkpt>
			<trkpt lat="51.613833" lon="38.582439"><time>1970-01-01T00:00:01.000Z</time></trkpt>
			<trkpt lat="51.621587" lon="38.588576"><time>1970-01-01T00:00:01.000Z</time></trkpt>
			<trkpt lat="51.622626" lon="38.591537"><time>1970-01-01T00:00:01.000Z</time></trkpt>
			<trkpt lat="51.624997" lon="38.594584"><time>1970-01-01T00:00:01.000Z</time></trkpt>
			<trkpt lat="51.622493" lon="38.598232"><time>1970-01-01T00:00:01.000Z</time></trkpt>
			<trkpt lat="51.625024" lon="38.602481"><time>1970-01-01T00:00:01.000Z</time></trkpt>
			<trkpt lat="51.623132" lon="38.609605"><time>1970-01-01T00:00:01.000Z</time></trkpt>
			<trkpt lat="51.624704" lon="38.614798"><time>1970-01-01T00:00:01.000Z</time></trkpt>
			<trkpt lat="51.624518" lon="38.617415"><time>1970-01-01T00:00:01.000Z</time></trkpt>
			<trkpt lat="51.626995" lon="38.620420"><time>1970-01-01T00:00:01.000Z</time></trkpt>
			<trkpt lat="51.632084" lon="38.615313"><time>1970-01-01T00:00:01.000Z</time></trkpt>
			<trkpt lat="51.646199" lon="38.608618"><time>1970-01-01T00:00:01.000Z</time></trkpt>
			<trkpt lat="51.656850" lon="38.608875"><time>1970-01-01T00:00:01.000Z</time></trkpt>
			<trkpt lat="51.669415" lon="38.606901"><time>1970-01-01T00:00:01.000Z</time></trkpt>
			<trkpt lat="51.688627" lon="38.601408"><time>1970-01-01T00:00:01.000Z</time></trkpt>
			<trkpt lat="51.697353" lon="38.601408"><time>1970-01-01T00:00:01.000Z</time></trkpt>
			<trkpt lat="51.713629" lon="38.609304"><time>1970-01-01T00:00:01.000Z</time></trkpt>
			<trkpt lat="51.720808" lon="38.611794"><time>1970-01-01T00:00:01.000Z</time></trkpt>
			<trkpt lat="51.724795" lon="38.617973"><time>1970-01-01T00:00:01.000Z</time></trkpt>
			<trkpt lat="51.740424" lon="38.647928"><time>1970-01-01T00:00:01.000Z</time></trkpt>
			<trkpt lat="51.745898" lon="38.659687"><time>1970-01-01T00:00:01.000Z</time></trkpt>
			<trkpt lat="51.753602" lon="38.669214"><time>1970-01-01T00:00:01.000Z</time></trkpt>
			<trkpt lat="51.756843" lon="38.671446"><time>1970-01-01T00:00:01.000Z</time></trkpt>
			<trkpt lat="51.762740" lon="38.670931"><time>1970-01-01T00:00:01.000Z</time></trkpt>
			<trkpt lat="51.765821" lon="38.672132"><time>1970-01-01T00:00:01.000Z</time></trkpt>
			<trkpt lat="51.769062" lon="38.675995"><time>1970-01-01T00:00:01.000Z</time></trkpt>
			<trkpt lat="51.777772" lon="38.695650"><time>1970-01-01T00:00:01.000Z</time></trkpt>
			<trkpt lat="51.792957" lon="38.732471"><time>1970-01-01T00:00:01.000Z</time></trkpt>
			<trkpt lat="51.818750" lon="38.732042"><time>1970-01-01T00:00:01.000Z</time></trkpt>
			<trkpt lat="51.826867" lon="38.732300"><time>1970-01-01T00:00:01.000Z</time></trkpt>
			<trkpt lat="51.837899" lon="38.733845"><time>1970-01-01T00:00:01.000Z</time></trkpt>
			<trkpt lat="51.855609" lon="38.734102"><time>1970-01-01T00:00:01.000Z</time></trkpt>
			<trkpt lat="51.866157" lon="38.734875"><time>1970-01-01T00:00:01.000Z</time></trkpt>
			<trkpt lat="51.871086" lon="38.733845"><time>1970-01-01T00:00:01.000Z</time></trkpt>
			<trkpt lat="51.886028" lon="38.737450"><time>1970-01-01T00:00:01.000Z</time></trkpt>
			<trkpt lat="51.894715" lon="38.730154"><time>1970-01-01T00:00:01.000Z</time></trkpt>
			<trkpt lat="51.899959" lon="38.733072"><time>1970-01-01T00:00:01.000Z</time></trkpt>
			<trkpt lat="51.897416" lon="38.740883"><time>1970-01-01T00:00:01.000Z</time></trkpt>
			<trkpt lat="51.892861" lon="38.747835"><time>1970-01-01T00:00:01.000Z</time></trkpt>
			<trkpt lat="51.880518" lon="38.764572"><time>1970-01-01T00:00:01.000Z</time></trkpt>
			<trkpt lat="51.868012" lon="38.785515"><time>1970-01-01T00:00:01.000Z</time></trkpt>
			<trkpt lat="51.880518" lon="38.806801"><time>1970-01-01T00:00:01.000Z</time></trkpt>
			<trkpt lat="51.888783" lon="38.812981"><time>1970-01-01T00:00:01.000Z</time></trkpt>
			<trkpt lat="51.898952" lon="38.816071"><time>1970-01-01T00:00:01.000Z</time></trkpt>
			<trkpt lat="51.900012" lon="38.822937"><time>1970-01-01T00:00:01.000Z</time></trkpt>
			<trkpt lat="51.889842" lon="38.845253"><time>1970-01-01T00:00:01.000Z</time></trkpt>
			<trkpt lat="51.903825" lon="38.879929"><time>1970-01-01T00:00:01.000Z</time></trkpt>
			<trkpt lat="51.910603" lon="38.895378"><time>1970-01-01T00:00:01.000Z</time></trkpt>
			<trkpt lat="51.915473" lon="38.907394"><time>1970-01-01T00:00:01.000Z</time></trkpt>
			<trkpt lat="51.909544" lon="38.922501"><time>1970-01-01T00:00:01.000Z</time></trkpt>
			<trkpt lat="51.920556" lon="38.935890"><time>1970-01-01T00:00:01.000Z</time></trkpt>
			<trkpt lat="51.936487" lon="38.960094"><time>1970-01-01T00:00:01.000Z</time></trkpt>
			<trkpt lat="51.936751" lon="38.979063"><time>1970-01-01T00:00:01.000Z</time></trkpt>
			<trkpt lat="51.939662" lon="38.986187"><time>1970-01-01T00:00:01.000Z</time></trkpt>
			<trkpt lat="51.940773" lon="38.991251"><time>1970-01-01T00:00:01.000Z</time></trkpt>
			<trkpt lat="51.942625" lon="39.001894"><time>1970-01-01T00:00:01.000Z</time></trkpt>
			<trkpt lat="51.943630" lon="39.011765"><time>1970-01-01T00:00:01.000Z</time></trkpt>
			<trkpt lat="51.943418" lon="39.016314"><time>1970-01-01T00:00:01.000Z</time></trkpt>
			<trkpt lat="51.941249" lon="39.027643"><time>1970-01-01T00:00:01.000Z</time></trkpt>
			<trkpt lat="51.939238" lon="39.036913"><time>1970-01-01T00:00:01.000Z</time></trkpt>
			<trkpt lat="51.940138" lon="39.055796"><time>1970-01-01T00:00:01.000Z</time></trkpt>
			<trkpt lat="51.940085" lon="39.061546"><time>1970-01-01T00:00:01.000Z</time></trkpt>
			<trkpt lat="51.935428" lon="39.073992"><time>1970-01-01T00:00:01.000Z</time></trkpt>
			<trkpt lat="51.932676" lon="39.080429"><time>1970-01-01T00:00:01.000Z</time></trkpt>
			<trkpt lat="51.927384" lon="39.086437"><time>1970-01-01T00:00:01.000Z</time></trkpt>
			<trkpt lat="51.923414" lon="39.098110"><time>1970-01-01T00:00:01.000Z</time></trkpt>
			<trkpt lat="51.920397" lon="39.102659"><time>1970-01-01T00:00:01.000Z</time></trkpt>
			<trkpt lat="51.915632" lon="39.104633"><time>1970-01-01T00:00:01.000Z</time></trkpt>
			<trkpt lat="51.908802" lon="39.121284"><time>1970-01-01T00:00:01.000Z</time></trkpt>
			<trkpt lat="51.898317" lon="39.144287"><time>1970-01-01T00:00:01.000Z</time></trkpt>
			<trkpt lat="51.895510" lon="39.162140"><time>1970-01-01T00:00:01.000Z</time></trkpt>
			<trkpt lat="51.893954" lon="39.168502"><time>1970-01-01T00:00:01.000Z</time></trkpt>
			<trkpt lat="51.893725" lon="39.167885"><time>1970-01-01T00:00:01.000Z</time></trkpt>
			<trkpt lat="51.892421" lon="39.167418"><time>1970-01-01T00:00:01.000Z</time></trkpt>
			<trkpt lat="51.890743" lon="39.167547"><time>1970-01-01T00:00:01.000Z</time></trkpt>
			<trkpt lat="51.888306" lon="39.169693"><time>1970-01-01T00:00:01.000Z</time></trkpt>
			<trkpt lat="51.888306" lon="39.173212"><time>1970-01-01T00:00:01.000Z</time></trkpt>
			<trkpt lat="51.884544" lon="39.172440"><time>1970-01-01T00:00:01.000Z</time></trkpt>
			<trkpt lat="51.871669" lon="39.173126"><time>1970-01-01T00:00:01.000Z</time></trkpt>
			<trkpt lat="51.865415" lon="39.170895"><time>1970-01-01T00:00:01.000Z</time></trkpt>
			<trkpt lat="51.858100" lon="39.163256"><time>1970-01-01T00:00:01.000Z</time></trkpt>
			<trkpt lat="51.852428" lon="39.155703"><time>1970-01-01T00:00:01.000Z</time></trkpt>
			<trkpt lat="51.853965" lon="39.150639"><time>1970-01-01T00:00:01.000Z</time></trkpt>
			<trkpt lat="51.845853" lon="39.145660"><time>1970-01-01T00:00:01.000Z</time></trkpt>
			<trkpt lat="51.838429" lon="39.143085"><time>1970-01-01T00:00:01.000Z</time></trkpt>
			<trkpt lat="51.832065" lon="39.144115"><time>1970-01-01T00:00:01.000Z</time></trkpt>
			<trkpt lat="51.830845" lon="39.142399"><time>1970-01-01T00:00:01.000Z</time></trkpt>
			<trkpt lat="51.826071" lon="39.145575"><time>1970-01-01T00:00:01.000Z</time></trkpt>
			<trkpt lat="51.824426" lon="39.143085"><time>1970-01-01T00:00:01.000Z</time></trkpt>
			<trkpt lat="51.819333" lon="39.142570"><time>1970-01-01T00:00:01.000Z</time></trkpt>
			<trkpt lat="51.810154" lon="39.139566"><time>1970-01-01T00:00:01.000Z</time></trkpt>
			<trkpt lat="51.807182" lon="39.139738"><time>1970-01-01T00:00:01.000Z</time></trkpt>
			<trkpt lat="51.803785" lon="39.141626"><time>1970-01-01T00:00:01.000Z</time></trkpt>
			<trkpt lat="51.800919" lon="39.142313"><time>1970-01-01T00:00:01.000Z</time></trkpt>
			<trkpt lat="51.797151" lon="39.146347"><time>1970-01-01T00:00:01.000Z</time></trkpt>
			<trkpt lat="51.796301" lon="39.147892"><time>1970-01-01T00:00:01.000Z</time></trkpt>
			<trkpt lat="51.790302" lon="39.145746"><time>1970-01-01T00:00:01.000Z</time></trkpt>
			<trkpt lat="51.790037" lon="39.154158"><time>1970-01-01T00:00:01.000Z</time></trkpt>
			<trkpt lat="51.784993" lon="39.180250"><time>1970-01-01T00:00:01.000Z</time></trkpt>
			<trkpt lat="51.784781" lon="39.197159"><time>1970-01-01T00:00:01.000Z</time></trkpt>
			<trkpt lat="51.753177" lon="39.186430"><time>1970-01-01T00:00:01.000Z</time></trkpt>
		</trkseg>
	</trk>
</gpx>